Lid_Strength_Index
-1 -0 3 4 10 11 15 13 10 10 9 7 6 7 8 8 9 12 3 1 0 0 -0 -1 -1 -1 -1 -1 -1 -1 -1 -1 -1 -1 -1 -1 -1 -1 -1 -1 -1 -1 -1 -1 -1 -1 -1 -1 -1
0 1 4 7 12 15 14 11 11 9 7 6 8 7 8 9 6 5 3 0 -0 -0 -0 -0 -1 -1 -1 -1 -1 -1 -1 -1 -2 -2 -2 -2 -2 -2 -2 -1 -1 -1 -1 -1 -1 -1 -1 -1 -1
2 3 8 10 12 15 14 11 9 7 6 7 8 8 9 9 6 8 4 0 -0 0 -0 -0 -1 -1 -1 -1 -1 -2 -2 -2 -2 -2 -2 -2 -2 -2 -2 -2 -2 -2 -1 -1 -1 -1 -1 -1 -1
5 6 8 12 13 11 11 10 8 8 8 8 8 9 9 8 7 3 0 -0 0 0 -0 -1 -2 -1 -2 -2 -2 -2 -2 -2 -2 -2 -2 -2 -2 -2 -2 -2 -2 -2 -2 -2 -1 -1 -1 -1 -1
6 8 12 13 13 12 11 9 8 9 10 9 8 9 9 7 6 1 1 0 1 0 0 -0 -1 -2 -2 -2 -2 -2 -2 -2 -2 -2 -1 -2 -2 -2 -2 -2 -2 -2 -2 -2 -2 -2 -1 -1 -1
8 10 13 15 13 11 11 9 8 9 10 9 9 9 8 7 5 3 1 1 0 0 -0 -0 -1 -2 -2 -3 -2 -2 -2 -2 -2 -2 -2 -2 -2 -2 -2 -2 -2 -2 -2 -2 -2 -2 -2 -2 -1
8 11 13 13 12 12 10 9 11 9 10 9 7 9 9 7 6 5 2 1 0 0 0 1 -0 -1 -3 -3 -3 -3 -2 -2 -2 -2 -2 -2 -2 -2 -2 -2 -2 -2 -2 -2 -2 -2 -1 -2 -1
7 8 12 13 12 11 9 9 9 8 10 8 7 10 10 7 5 7 5 4 2 2 2 2 2 1 3 1 -3 -2 -2 -2 -2 -1 -0 0 1 0 -2 -2 -2 -2 -2 -2 -2 -0 -0 -2 -1
6 11 12 11 10 9 9 10 9 8 9 8 8 8 7 6 4 7 9 9 6 2 2 2 3 3 5 4 0 -0 -1 -0 1 2 2 5 6 5 4 -0 -1 -1 -1 -1 -1 -1 -0 -0 -0
9 11 10 8 8 9 9 10 9 9 9 9 9 8 7 6 6 6 10 10 8 7 7 7 6 7 7 5 8 7 6 7 8 8 8 8 8 5 4 2 1 1 1 1 1 1 1 3 4
8 11 9 7 7 7 9 10 9 9 10 9 9 8 7 7 7 6 6 7 10 10 10 9 8 7 7 8 9 9 9 9 8 9 8 8 8 8 8 7 7 7 4 6 6 6 6 6 6
10 7 7 6 7 8 9 9 10 9 9 7 7 7 7 8 6 6 6 7 8 10 10 7 7 7 7 7 9 9 9 9 9 9 9 9 9 9 9 8 8 8 8 8 8 8 7 7 7
10 9 7 7 7 8 8 9 9 10 8 8 7 7 7 7 7 6 6 6 8 8 9 8 8 8 8 9 9 9 9 10 9 9 9 9 9 9 9 9 8 8 8 8 8 9 8 8 8
9 8 8 8 8 9 9 9 10 9 8 8 8 8 8 7 7 8 8 7 8 9 9 9 8 9 9 10 10 10 10 10 9 9 9 8 9 9 9 9 9 9 9 8 9 9 9 9 9
9 10 10 9 9 10 9 11 11 9 9 9 9 8 8 8 8 7 7 6 8 9 10 10 9 9 10 10 10 10 10 10 10 10 9 8 9 10 9 9 9 9 9 8 9 9 9 10 9
11 12 14 11 9 9 10 14 11 9 9 10 10 10 9 9 8 8 7 6 8 9 10 10 8 9 10 10 10 10 10 11 10 10 10 8 8 9 10 9 10 9 9 9 9 10 10 10 10
14 16 15 13 10 10 11 14 11 10 9 9 10 10 9 9 9 9 9 7 8 9 11 11 10 10 10 11 11 11 11 11 11 11 11 10 8 9 10 10 10 9 9 10 10 10 10 11 10
16 16 15 15 12 11 12 13 11 11 9 9 9 9 9 9 8 8 8 8 8 10 10 11 10 11 11 11 12 12 11 11 11 11 11 10 10 10 11 10 10 10 10 11 10 11 10 11 11
14 15 15 14 11 11 12 12 10 10 10 10 9 9 9 9 7 8 8 9 10 11 12 11 11 11 11 12 12 13 12 12 12 11 10 11 11 10 11 11 11 10 11 11 11 11 11 12 11
13 14 15 13 11 12 12 13 11 10 11 10 9 9 9 8 8 9 8 10 10 10 11 11 11 11 11 11 12 12 13 12 12 11 11 11 11 11 11 11 11 11 11 12 12 12 12 12 11
13 14 14 14 12 12 13 14 13 11 10 10 9 8 8 8 8 8 9 9 9 10 11 11 11 11 11 11 12 12 12 12 12 11 12 11 11 11 11 11 12 12 12 12 12 12 12 13 12
14 11 11 12 14 16 13 17 15 13 12 11 10 9 9 8 8 8 8 9 9 9 10 10 10 11 10 11 11 12 12 13 12 12 12 12 11 12 11 11 12 12 12 12 12 11 12 12 13
13 10 11 12 14 16 16 17 18 15 14 12 11 10 9 8 8 8 8 8 8 9 10 10 10 11 10 11 11 12 13 12 12 13 13 13 12 12 11 11 12 12 12 12 12 12 12 12 13
10 12 13 14 15 18 15 15 15 14 13 12 10 10 10 9 9 8 7 8 8 9 10 10 11 11 11 11 11 12 12 12 13 13 13 13 13 12 12 11 12 12 12 12 12 12 13 13 13
12 14 18 19 19 18 15 15 14 14 13 12 11 9 9 11 10 8 8 8 9 9 10 10 11 11 11 11 11 11 12 12 13 13 13 13 13 13 12 12 12 12 12 12 12 12 13 13 13
13 13 16 20 20 17 15 18 15 12 11 10 10 9 9 9 9 9 8 8 9 9 10 10 11 11 11 11 11 11 11 12 12 12 13 13 13 13 12 12 12 12 12 12 12 12 12 12 12
14 15 12 15 14 19 16 15 13 12 12 11 11 11 10 8 10 9 9 9 9 10 10 10 10 10 11 11 11 12 12 12 12 13 13 13 13 12 12 12 12 12 12 12 12 12 13 12 11
12 11 15 17 19 19 16 18 16 14 13 11 11 11 10 9 9 10 9 9 10 10 10 10 10 10 11 11 11 11 12 12 12 13 13 13 13 12 12 12 12 12 12 12 12 13 12 12 11
12 13 14 14 15 17 18 16 13 12 11 10 11 11 11 10 9 9 9 9 10 10 10 10 10 10 11 11 11 11 12 12 13 13 13 13 13 13 12 12 12 12 12 12 13 13 12 12 11
9 11 12 15 16 16 15 15 12 12 12 12 11 11 10 11 10 9 9 11 11 11 10 10 10 10 11 11 11 12 12 13 14 14 14 13 13 13 13 13 13 13 13 13 13 13 12 12 11